Location: Asheville, NC
(35.6000°N, 82.5500°W)
Time: 02:37:04
(UTC-04:00)

XW-2A - Pass Details

Date: 11 March 2018
Orbit: 434 x 454 km, 97.4° (Epoch: 20 June)

Event Time Altitude Azimuth Distance (km) Brightness Sun altitude
Exits shadow 21:23:26 - 196° (SSW) 2,167 ? -22.8°
Reaches altitude 10° 21:25:09 10° 209° (SSW) 1,530 ? -23.2°
Maximum altitude 21:27:48 23° 263° (W) 975 ? -23.7°
Drops below altitude 10° 21:30:30 10° 318° (NW) 1,542 ? -24.2°
Sets 21:32:48 0° 334° (NNW) 2,417 ? -24.7°
